Weather History for KROA - October, 2010

Change the Weather History Date:

Monday, October 11, 2010

  Actual Average Record
Temperature  
Mean Temperature 71 °F 59 °F  
Max Temperature 85 °F 70 °F 89 °F (1919)
Min Temperature 56 °F 48 °F 28 °F (1964)
Degree Days  
Heating Degree Days 0 7  
Month to date heating degree days 47 62  
Since 1 July heating degree days 67 111  
Cooling Degree Days 6 1  
Month to date cooling degree days 10 13  
Year to date cooling degree days 1662 1199  
Growing Degree Days 20 (Base 50)    
Moisture  
Dew Point 48 °F    
Average Humidity 46    
Maximum Humidity 67    
Minimum Humidity 25    
Precipitation  
Precipitation 0.00 in 0.09 in 2.66 in (1983)
Month to date precipitation 0.10 1.01  
Year to date precipitation 36.37 33.03  
Snow  
Snow 0.00 in - - ()
Month to date snowfall 0.0  
Since 1 July snowfall 0.0  
Since 1 September snowfall 0.0  
Snow Depth 0.00 in    
Sea Level Pressure  
Sea Level Pressure 29.91 in    
Wind  
Wind Speed 5 mph (West)    
Max Wind Speed 15 mph    
Max Gust Speed 18 mph    
Visibility 10 miles    
Events      
T = Trace of Precipitation, MM = Missing Value Source: NWS Daily Summary

Daily Weather History Graph

Daily Weather History Graph

Search for Another Location

Airport or City:

Trip Planner

Search our weather history database for the weather conditions in past years. The results will help you decide how hot, cold, wet, or windy it might be!

Date:

Astronomy

Oct. 11, 2010 Rise Set
Actual Time 7:24 AM EDT 6:48 PM EDT
Civil Twilight 6:57 AM EDT 7:14 PM EDT
Nautical Twilight 6:27 AM EDT 7:44 PM EDT
Astronomical Twilight 5:57 AM EDT 8:14 PM EDT
Moon 11:51 AM EDT (10/11) 9:31 PM EDT (10/11)
Length of Visible Light 12h 16m
Length of Day
11h 24m
Waxing Crescent, 19% of the Moon is Illuminated
Oct 11
Waxing Crescent
Oct 14
First Quarter
Oct 22
Full
Oct 30
Last Quarter
Nov 6
New

Hourly Weather History & Observations

Time (EDT) Temp. Dew Point Humidity Pressure Visibility Wind Dir Wind Speed Gust Speed Precip Events Conditions
12:54 AM 60.1 °F 48.9 °F 67% 29.94 in 10.0 mi Calm Calm - N/A   Clear
1:54 AM 63.0 °F 46.9 °F 56% 29.93 in 10.0 mi North 5.8 mph - N/A   Clear
2:54 AM 64.0 °F 46.9 °F 54% 29.93 in 10.0 mi NNW 3.5 mph - N/A   Clear
3:54 AM 61.0 °F 46.9 °F 60% 29.93 in 10.0 mi NW 5.8 mph - N/A   Clear
4:54 AM 61.0 °F 46.9 °F 60% 29.93 in 10.0 mi WNW 3.5 mph - N/A   Clear
5:54 AM 62.1 °F 46.9 °F 58% 29.93 in 10.0 mi NW 4.6 mph - N/A   Clear
6:54 AM 59.0 °F 46.9 °F 64% 29.95 in 10.0 mi North 4.6 mph - N/A   Clear
7:54 AM 57.9 °F 46.9 °F 67% 29.96 in 10.0 mi NNE 3.5 mph - N/A   Clear
8:54 AM 64.0 °F 48.9 °F 58% 29.97 in 10.0 mi NW 3.5 mph - N/A   Partly Cloudy
9:54 AM 70.0 °F 50.0 °F 49% 29.96 in 10.0 mi West 6.9 mph - N/A   Partly Cloudy
10:54 AM 73.0 °F 50.0 °F 44% 29.96 in 10.0 mi West 9.2 mph - N/A   Clear
11:54 AM 77.0 °F 48.9 °F 37% 29.94 in 10.0 mi WSW 9.2 mph - N/A   Clear
12:54 PM 81.0 °F 50.0 °F 34% 29.93 in 10.0 mi West 8.1 mph - N/A   Clear
1:54 PM 82.9 °F 48.9 °F 31% 29.89 in 10.0 mi SW 8.1 mph - N/A   Clear
2:54 PM 84.0 °F 48.9 °F 29% 29.86 in 10.0 mi SW 9.2 mph - N/A   Clear
3:54 PM 84.0 °F 46.0 °F 26% 29.85 in 10.0 mi SW 10.4 mph - N/A   Partly Cloudy
4:54 PM 84.0 °F 45.0 °F 25% 29.85 in 10.0 mi WSW 8.1 mph - N/A   Partly Cloudy
5:54 PM 82.0 °F 44.1 °F 26% 29.84 in 10.0 mi SW 4.6 mph - N/A   Partly Cloudy
6:54 PM 75.0 °F 48.9 °F 40% 29.86 in 10.0 mi Calm Calm - N/A   Partly Cloudy
7:54 PM 69.1 °F 52.0 °F 54% 29.87 in 10.0 mi Calm Calm - N/A   Clear
8:54 PM 66.0 °F 53.1 °F 63% 29.88 in 10.0 mi Calm Calm - N/A   Clear
9:54 PM 64.0 °F 52.0 °F 65% 29.88 in 10.0 mi Calm Calm - N/A   Clear
10:54 PM 64.9 °F 50.0 °F 58% 29.89 in 10.0 mi West 3.5 mph - N/A   Clear
11:54 PM 64.0 °F 48.9 °F 58% 29.89 in 10.0 mi Calm Calm - N/A   Clear